[[{"header":{"parameterUnit":"m.s-1","parameterCategory":1,"la1":30.2991,"la2":30.254,"lo1":-89.0895,"lo2":-89.0444,"dy":0.0017,"dx":0.0017,"nx":28,"ny":28,"refTime":"2024-06-05T21:00:00:Z","depth":0,"parameterNumber":2,"parameterNumberName":"U-component_of_WINDS"},"data":[0,0,0,0,0,0,0,0,0,0,0,0,0,0,0,0,0,0,0,0,0,0,0,0,0,0,0,0,0,0,0,0,0,0,0,0,0,0,0,0,0,0,0,0,0,0,0,0,0,0,0,0,0,0,0,0,0,0,1.7327,1.7328,0,1.7348,1.7348,1.7348,1.7291,1.7289,1.7287,1.7285,1.7315,1.7317,1.7319,0,0,0,0,0,0,0,0,0,0,0,0,0,1.7248,1.725,1.7327,1.7328,1.7328,1.7348,1.7348,1.7348,1.7291,1.7289,1.7287,1.7285,1.7314,1.7317,1.732,0,0,0,0,0,0,0,0,0,0,0,0,0,1.7277,1.725,1.7327,1.7302,1.7299,1.7348,1.7348,1.7348,1.7292,1.7289,1.7286,1.7284,1.7313,1.7316,1.732,1.7396,0,0,1.7331,1.7333,0,0,0,0,0,0,0,0,1.7276,1.728,1.7305,1.7303,1.7301,1.7314,1.733,1.7365,1.7292,1.7295,1.7285,1.7282,1.7317,1.732,1.733,1.7398,1.7399,1.7331,1.7334,1.7335,1.7336,0,0,0,0,0,0,0,1.7274,1.7279,1.7336,1.7306,1.7303,1.7292,1.7293,1.7337,1.7321,1.7294,1.729,1.7293,1.7315,1.7327,1.733,1.7399,1.7331,1.7335,1.7337,1.7338,1.7533,1.7536,0,0,0,0,0,0,1.7274,1.7278,1.7335,1.7336,1.7281,1.7296,1.7297,1.7313,1.732,1.7319,1.7295,1.729,1.7322,1.7326,1.7331,1.7422,1.7335,1.7339,1.7341,1.753,1.7534,1.7537,0,0,0,0,0,0,1.7272,1.7279,1.7334,1.7306,1.7312,1.73,1.7318,1.7314,1.7325,1.7321,1.7319,1.7309,1.732,1.7326,1.7381,1.7422,1.734,1.7344,1.7527,1.7532,1.7536,1.7604,0,0,0,0,0,0,1.727,1.7279,1.7306,1.7307,1.7314,1.7381,1.732,1.7317,1.7331,1.7325,1.7333,1.7332,1.7318,1.7375,1.7384,1.7426,1.7347,1.7523,1.7529,1.7534,1.7598,1.7611,1.7621,0,0,0,0,0,1.7268,1.7326,1.7307,1.7315,1.7346,1.7383,1.7387,1.7368,1.7334,1.7363,1.736,1.7332,1.7416,1.7381,1.7391,1.7434,1.752,1.7527,1.7534,1.7593,1.7608,1.7621,0,0,0,0,0,0,1.7333,1.7325,1.7305,1.7365,1.7375,1.7373,1.7408,1.7384,1.7406,1.7399,1.7376,1.7379,1.7438,1.7442,1.7403,1.751,1.7463,1.7472,1.7505,1.7519,1.7531,1.7529,1.735,0,0,0,0,0,1.7354,1.7381,1.7375,1.7428,1.7434,1.742,1.7436,1.742,1.743,1.7435,1.7436,1.745,1.748,1.75,1.7527,1.7599,1.7601,1.7634,1.7645,1.7655,1.7663,1.7703,1.7718,1.7559,1.7559,1.7559,0,0,1.7398,1.7397,1.7417,1.7441,1.7447,1.7479,1.7424,1.746,1.7485,1.7441,1.7492,1.7494,1.7508,1.7572,1.76,1.7577,1.7707,1.7663,1.7671,1.7674,1.7712,1.7727,1.774,1.7564,1.7563,1.7562,0,0,1.7495,1.7496,1.7542,1.7548,1.7557,1.7548,1.7559,1.7561,1.756,1.761,1.7579,1.7609,1.766,1.7672,1.7684,1.7788,1.7763,1.7798,1.7857,1.7897,1.7909,1.792,1.7958,1.7972,1.7806,1.7806,1.7806,0,1.755,1.7593,1.7569,1.7607,1.762,1.7579,1.7627,1.7635,1.7654,1.7665,1.7638,1.7702,1.7709,1.7775,1.7801,1.7812,1.7826,1.7796,1.7909,1.792,1.793,1.7966,1.798,1.781,1.7809,1.7809,1.7809,0,1.7661,1.7693,1.7729,1.7744,1.7762,1.7804,1.7789,1.781,1.7793,1.7788,1.7841,1.7847,1.7876,1.789,1.7875,1.7956,1.7941,1.7912,1.7865,1.7949,1.7983,1.7997,1.7816,1.7814,1.7813,1.7812,0,0,1.7799,1.7801,1.7815,1.7822,1.7829,1.7855,1.7897,1.7922,1.7941,1.7956,1.7993,1.8037,1.801,1.8025,1.8011,1.8046,1.8129,1.8013,1.8013,1.8035,1.822,1.8242,1.8259,1.8113,1.8115,1.8117,1.822,0,1.7895,1.7964,1.7944,1.8014,1.8045,1.8008,1.8045,1.8055,1.8052,1.8079,1.8077,1.8109,1.8071,1.808,1.8112,1.8112,1.8166,1.8104,1.8149,1.8151,1.8146,1.8276,1.8299,1.8395,1.8232,1.8235,1.8236,0,1.8016,1.8033,1.8106,1.8109,1.8121,1.8154,1.8177,1.8202,1.8215,1.821,1.8227,1.8206,1.8251,1.8203,1.8266,1.8225,1.8242,1.8245,1.8249,1.8252,1.8199,1.8284,1.8425,1.844,1.8256,1.8255,1.8253,0,1.811,1.8152,1.8201,1.8209,1.8213,1.8238,1.8242,1.8251,1.8268,1.8289,1.83,1.8327,1.8342,1.8364,1.8353,1.8319,1.8419,1.837,1.8419,1.8419,1.8441,1.844,1.8588,1.8452,1.8452,1.8452,1.8451,0,1.822,1.8267,1.8244,1.8274,1.8326,1.8304,1.8357,1.8357,1.8366,1.8398,1.8369,1.84,1.8383,1.8414,1.8406,1.846,1.8467,1.8467,1.8464,1.8469,1.847,1.8481,1.8474,1.8455,1.8455,1.8454,1.8453,0,1.8334,1.832,1.8372,1.8372,1.8373,1.8412,1.8413,1.8443,1.8438,1.8479,1.8488,1.848,1.8515,1.8506,1.8545,1.854,1.8609,1.8597,1.8604,1.8601,1.8651,1.8647,1.8811,1.8833,1.8683,1.8684,1.8685,0,1.8405,1.844,1.8443,1.8461,1.8466,1.8496,1.8512,1.8493,1.8512,1.853,1.8558,1.859,1.8614,1.8673,1.8673,1.8704,1.8693,1.8749,1.8698,1.8703,1.8695,1.8694,1.8698,1.876,1.8761,1.8763,1.8764,0,1.8533,1.8524,1.8548,1.857,1.859,1.8607,1.8621,1.8639,1.8621,1.8644,1.8678,1.8697,1.8736,1.877,1.8797,1.8805,1.8783,1.878,1.8793,1.8799,1.8801,1.8802,1.8632,1.8776,1.8775,1.8774,1.8773,1.8773,1.8628,1.8657,1.8664,1.8692,1.8701,1.8716,1.8743,1.8741,1.8768,1.8796,1.8785,1.8825,1.8838,1.8873,1.8884,1.8917,1.8896,1.8915,1.892,1.8925,1.8931,1.8796,1.8922,1.8922,1.8921,1.8921,1.8921,0,1.8755,1.8758,1.8783,1.8804,1.8826,1.8801,1.8816,1.8838,1.8872,1.8885,1.891,1.895,1.8983,1.8985,1.9016,1.9043,1.9033,1.9052,1.905,1.9052,1.8948,1.8933,1.9058,1.9058,1.9058,1.9058,1.9058,1.9058,1.8824,1.8872,1.8865,1.8919,1.8922,1.8959,1.897,1.8984,1.8995,1.904,1.9066,1.9066,1.9077,1.9108,1.9138,1.9138,1.9152,1.9174,1.9171,1.9073,1.9059,1.9046,1.9033,1.9177,1.9177,1.9272,1.9273,1.9274]},{"header":{"parameterUnit":"m.s-1","parameterCategory":1,"la1":30.2991,"la2":30.254,"lo1":-89.0895,"lo2":-89.0444,"dy":0.0017,"dx":0.0017,"nx":28,"ny":28,"refTime":"2024-06-05T21:00:00:Z","depth":0,"parameterNumber":3,"parameterNumberName":"V-component_of_WINDS"},"data":[0,0,0,0,0,0,0,0,0,0,0,0,0,0,0,0,0,0,0,0,0,0,0,0,0,0,0,0,0,0,0,0,0,0,0,0,0,0,0,0,0,0,0,0,0,0,0,0,0,0,0,0,0,0,0,0,0,0,2.0797,2.0797,0,2.0828,2.0828,2.0828,2.085,2.0851,2.0851,2.0851,2.088,2.088,2.0881,0,0,0,0,0,0,0,0,0,0,0,0,0,2.0752,2.0753,2.0797,2.0797,2.0798,2.0828,2.0828,2.0828,2.085,2.0851,2.0851,2.0851,2.088,2.088,2.0881,0,0,0,0,0,0,0,0,0,0,0,0,0,2.0776,2.0753,2.0797,2.0812,2.0814,2.0827,2.0828,2.0828,2.085,2.0851,2.0851,2.0851,2.0879,2.088,2.0881,2.0881,0,0,2.0884,2.0884,0,0,0,0,0,0,0,0,2.0775,2.0778,2.081,2.0811,2.0813,2.0835,2.0823,2.0846,2.085,2.0836,2.0851,2.0851,2.0865,2.0867,2.0872,2.0882,2.0884,2.0884,2.0885,2.0885,2.0885,0,0,0,0,0,0,0,2.0773,2.0776,2.0809,2.081,2.0812,2.0816,2.082,2.0827,2.0848,2.0838,2.0839,2.0843,2.0866,2.0871,2.0873,2.0884,2.0884,2.0885,2.0885,2.0886,2.0893,2.0892,0,0,0,0,0,0,2.0769,2.0775,2.0808,2.081,2.0794,2.0817,2.0821,2.0828,2.0849,2.0852,2.0842,2.0844,2.0869,2.0872,2.0874,2.0873,2.0885,2.0886,2.0886,2.0893,2.0892,2.0892,0,0,0,0,0,0,2.0768,2.0772,2.0807,2.0793,2.0798,2.0817,2.0825,2.0828,2.0834,2.0852,2.0856,2.0844,2.087,2.0873,2.0879,2.0874,2.0886,2.0887,2.0893,2.0893,2.0892,2.0873,0,0,0,0,0,0,2.0767,2.0772,2.0773,2.0793,2.0798,2.0812,2.0825,2.0829,2.0836,2.0837,2.0855,2.0858,2.087,2.0877,2.0879,2.0876,2.0888,2.0894,2.0893,2.0892,2.0874,2.0871,2.087,0,0,0,0,0,2.0765,2.0767,2.0773,2.0777,2.0801,2.0812,2.0815,2.083,2.0835,2.0836,2.0847,2.0857,2.0874,2.0878,2.088,2.0877,2.0894,2.0893,2.0892,2.0875,2.0872,2.087,0,0,0,0,0,0,2.0746,2.077,2.0777,2.0785,2.0796,2.0816,2.0818,2.0827,2.0836,2.0838,2.0854,2.0858,2.0861,2.087,2.0873,2.0876,2.0885,2.0885,2.0871,2.0868,2.0866,2.0864,2.0888,0,0,0,0,0,2.0743,2.0752,2.0771,2.0776,2.0781,2.0798,2.0804,2.0814,2.0826,2.083,2.0842,2.0853,2.086,2.0865,2.0873,2.0875,2.0877,2.0874,2.0871,2.087,2.0869,2.0868,2.0866,2.0889,2.0889,2.0889,0,0,2.0737,2.075,2.0755,2.0772,2.0782,2.0789,2.0802,2.0809,2.0814,2.0831,2.0838,2.0846,2.0859,2.0862,2.0864,2.0869,2.0863,2.0869,2.0867,2.0868,2.0867,2.0864,2.0862,2.0889,2.0889,2.0889,0,0,2.0728,2.074,2.0744,2.0753,2.0768,2.0778,2.0779,2.0797,2.0803,2.0809,2.0822,2.0826,2.084,2.0847,2.0853,2.0843,2.0852,2.0845,2.0834,2.0832,2.083,2.0829,2.0823,2.0821,2.0844,2.0844,2.0844,0,2.0718,2.0729,2.0745,2.0751,2.0757,2.0773,2.0775,2.0783,2.0799,2.0802,2.0808,2.0823,2.0833,2.0836,2.0834,2.0838,2.0838,2.0843,2.083,2.0828,2.0827,2.0822,2.082,2.0843,2.0843,2.0843,2.0843,0,2.0715,2.0722,2.0724,2.0738,2.0745,2.0749,2.0763,2.0767,2.0776,2.0785,2.079,2.0801,2.0811,2.0812,2.0821,2.0816,2.0819,2.0827,2.0836,2.0823,2.0818,2.0817,2.0842,2.0842,2.0842,2.0843,0,0,2.0697,2.0718,2.0718,2.0724,2.0739,2.0745,2.0748,2.0757,2.0759,2.0769,2.0771,2.078,2.0787,2.0793,2.0802,2.0801,2.0789,2.0809,2.0809,2.0803,2.0782,2.0775,2.0773,2.0795,2.0795,2.0795,2.078,0,2.069,2.0698,2.071,2.0714,2.0719,2.0732,2.0735,2.0744,2.0752,2.0756,2.0765,2.077,2.0779,2.0783,2.0782,2.0791,2.0785,2.0792,2.0795,2.0795,2.0791,2.0771,2.0764,2.075,2.0779,2.0778,2.0778,0,2.0683,2.0691,2.0695,2.0707,2.071,2.0712,2.072,2.0724,2.0733,2.0739,2.0744,2.0753,2.0755,2.0764,2.0766,2.077,2.0772,2.0776,2.0776,2.0776,2.0786,2.0769,2.0746,2.0743,2.0776,2.0776,2.0776,0,2.0668,2.0679,2.0682,2.0687,2.0702,2.0702,2.0708,2.0717,2.0721,2.0727,2.0729,2.0735,2.0738,2.0742,2.0752,2.0758,2.0752,2.0762,2.0755,2.0754,2.0753,2.0753,2.0728,2.0756,2.0756,2.0756,2.0756,0,2.0658,2.0659,2.0675,2.0677,2.0678,2.069,2.069,2.0697,2.0705,2.0706,2.0718,2.0719,2.0733,2.0735,2.0743,2.0741,2.0743,2.0746,2.0748,2.0745,2.0744,2.0746,2.0746,2.0755,2.0755,2.0755,2.0756,0,2.0641,2.0652,2.0656,2.0668,2.0671,2.0671,2.0681,2.0682,2.069,2.0691,2.0692,2.0704,2.0707,2.0717,2.0723,2.0728,2.0723,2.0728,2.072,2.0721,2.0713,2.0713,2.0688,2.0684,2.0715,2.0715,2.0714,0,2.0634,2.0635,2.0647,2.0649,2.0654,2.0658,2.0661,2.0672,2.0674,2.0682,2.0682,2.0685,2.0689,2.0692,2.07,2.0703,2.0707,2.0698,2.0708,2.0703,2.0705,2.0704,2.0703,2.0696,2.0696,2.0695,2.0695,0,2.062,2.0624,2.0629,2.0634,2.0637,2.0641,2.0647,2.0647,2.066,2.0661,2.0664,2.0666,2.0671,2.0673,2.0677,2.0682,2.0689,2.0692,2.069,2.0686,2.0681,2.0681,2.0713,2.0692,2.0693,2.0693,2.0693,2.0693,2.0607,2.0607,2.0614,2.0618,2.0622,2.0626,2.0626,2.0633,2.0636,2.064,2.0646,2.0647,2.0652,2.0659,2.0662,2.0662,2.0667,2.0665,2.0664,2.0663,2.066,2.0681,2.0663,2.0663,2.0663,2.0663,2.0663,0,2.0591,2.0596,2.0599,2.0605,2.0606,2.0613,2.0618,2.0619,2.062,2.0624,2.0627,2.0628,2.0629,2.0636,2.0638,2.0636,2.064,2.0636,2.0636,2.0636,2.0657,2.0657,2.0633,2.0633,2.0633,2.0633,2.0633,2.0633,2.0584,2.0583,2.0588,2.0589,2.0593,2.0594,2.0596,2.0598,2.0601,2.0602,2.0603,2.0607,2.0612,2.0614,2.0614,2.0616,2.0616,2.0611,2.0613,2.0632,2.0635,2.0638,2.0638,2.0611,2.0611,2.0593,2.0592,2.0592]}]]